Location: Hope
(40.9110°N, 74.9680°W)
Time: 06:34:58
(UTC-05:00)

Tiangong 2 - Pass Details

Date: 28 January 2019
Orbit: 381 x 390 km, 42.8° (Epoch: 20 February)

Event Time Altitude Azimuth Distance (km) Brightness Sun altitude
Exits shadow 06:13:26 13° 243° (WSW) 1,241 3.2 -11.7°
Maximum altitude 06:14:47 16° 214° (SW) 1,102 3.2 -11.4°
Drops below altitude 10° 06:16:49 10° 174° (S) 1,403 4.2 -11.1°
Sets 06:19:25 0° 151° (SSE) 2,255 5.7 -10.6°
